Location: Krasnoyarskiy Pitomnik
(51.1333°N, 71.6167°E)
Time: 10:26:13
(UTC+00:00)

Cosmos 1174 - Pass Details

Date: 22 October 2021
Orbit: 373 x 1139 km, 66.1° (Epoch: 06 December)

Event Time Altitude Azimuth Distance (km) Brightness Sun altitude
Rises 13:17:09 0° 235° (SW) 2,340 8.1 -11.7°
Reaches altitude 10° 13:19:20 10° 244° (WSW) 1,428 7.1 -12.1°
Maximum altitude 13:22:14 38° 315° (NW) 596 4.4 -12.5°
Drops below altitude 10° 13:25:04 10° 26° (NNE) 1,393 5.6 -13.0°
Enters shadow 13:25:19 - 28° (NNE) 1,493 5.8 -13.0°
